DW8313 Weather Reports


Display with metric or nautical units.
time (UTC)temp
F
wind
direction
speed
MPH
gust
MPH
rain 1hr
in
rain 24hr
in
rain mn
in
humidity
%
barometer
mb
20260507081425 53 0 0.0 0.0 0.00 0.00 0.00 76 1016.0
20260507081204 53 0 0.0 0.0 0.00 0.00 0.00 75 1016.0
20260507081004 53 0 0.0 0.0 0.00 0.00 0.00 74 1016.0
20260507080825 54 0 0.0 0.0 0.00 0.00 0.00 74 1016.0
20260507080604 54 0 0.0 0.0 0.00 0.00 0.00 74 1016.0
20260507080404 54 0 0.0 0.0 0.00 0.00 0.00 74 1016.0
20260507080204 54 0 0.0 0.0 0.00 0.00 0.00 74 1016.0
20260507080004 54 0 0.0 0.0 0.00 0.00 0.00 75 1016.0
20260507075804 53 0 0.0 0.0 0.00 0.00 0.00 75 1015.9
20260507075625 53 0 0.0 0.0 0.00 0.00 0.00 75 1016.0
20260507075404 53 0 0.0 0.0 0.00 0.00 0.00 75 1016.0
20260507075225 53 0 0.0 0.0 0.00 0.00 0.00 75 1016.0
20260507075004 53 0 0.0 0.0 0.00 0.00 0.00 76 1016.0
20260507074804 53 0 0.0 0.0 0.00 0.00 0.00 76 1015.9
20260507074604 53 0 0.0 0.0 0.00 0.00 0.00 75 1016.0
20260507074425 53 0 0.0 0.0 0.00 0.00 0.00 76 1016.1
20260507074226 54 0 0.0 0.0 0.00 0.00 0.00 76 1016.1
20260507074004 54 0 0.0 0.0 0.00 0.00 0.00 76 1016.1
20260507073804 54 0 0.0 0.0 0.00 0.00 0.00 75 1016.1
20260507073604 54 0 0.0 0.0 0.00 0.00 0.00 74 1016.1
20260507073404 55 0 0.0 0.0 0.00 0.00 0.00 75 1016.1
20260507073204 55 0 0.0 0.0 0.00 0.00 0.00 75 1016.1
20260507073004 55 0 0.0 0.0 0.00 0.00 0.00 74 1016.2
20260507072804 55 261 0.0 1.0 0.00 0.00 0.00 73 1016.2
20260507072604 56 254 0.0 3.0 0.00 0.00 0.00 73 1016.2
20260507072425 56 250 1.0 3.0 0.00 0.00 0.00 72 1016.2
20260507072204 57 255 1.0 3.0 0.00 0.00 0.00 71 1016.2
20260507072004 57 255 1.0 3.0 0.00 0.00 0.00 71 1016.2
20260507071805 58 248 1.0 3.0 0.00 0.00 0.00 69 1016.3
20260507071604 59 190 1.0 3.0 0.00 0.00 0.00 66 1016.2
20260507071404 59 90 1.0 3.0 0.00 0.00 0.00 62 1016.2
20260507071204 60 91 1.0 2.0 0.00 0.00 0.00 62 1016.2
20260507071025 60 92 1.0 2.0 0.00 0.00 0.00 61 1016.2
20260507070804 60 91 1.0 3.0 0.00 0.00 0.00 61 1016.2
20260507070604 60 89 1.0 3.0 0.00 0.00 0.00 62 1016.2
20260507070425 59 87 1.0 3.0 0.00 0.00 0.00 62 1016.3
20260507070204 59 88 1.0 3.0 0.00 0.00 0.00 63 1016.2
20260507070008 59 89 1.0 3.0 0.00 0.00 0.00 63 1016.3
20260507065804 59 88 1.0 3.0 0.00 0.00 0.00 63 1016.3
20260507065604 59 88 1.0 3.0 0.00 0.00 0.00 64 1016.3
20260507065404 59 92 1.0 3.0 0.00 0.00 0.00 64 1016.3
20260507065204 59 92 1.0 3.0 0.00 0.00 0.00 64 1016.3
20260507065004 59 89 1.0 3.0 0.00 0.00 0.00 64 1016.4
20260507064804 58 91 1.0 4.0 0.00 0.00 0.00 65 1016.4
20260507064604 58 90 1.0 4.0 0.00 0.00 0.00 66 1016.3
20260507064404 58 88 1.0 4.0 0.00 0.00 0.00 67 1016.4
20260507064204 57 87 1.0 4.0 0.00 0.00 0.00 67 1016.4
20260507064004 57 85 1.0 4.0 0.00 0.00 0.00 68 1016.3
20260507063804 57 84 1.0 3.0 0.00 0.00 0.00 69 1016.4
20260507063604 56 84 1.0 3.0 0.00 0.00 0.00 70 1016.4
20260507063404 56 84 1.0 3.0 0.00 0.00 0.00 71 1016.4
20260507063204 55 82 1.0 3.0 0.00 0.00 0.00 72 1016.4
20260507063025 55 82 0.0 2.0 0.00 0.00 0.00 74 1016.4
20260507062804 54 0 0.0 0.0 0.00 0.00 0.00 76 1016.5
20260507062625 54 0 0.0 0.0 0.00 0.00 0.00 78 1016.5
20260507062404 53 0 0.0 0.0 0.00 0.00 0.00 80 1016.5
20260507062204 54 62 0.0 1.0 0.00 0.00 0.00 80 1016.4
20260507062004 54 54 0.0 1.0 0.00 0.00 0.00 81 1016.4
20260507061804 54 84 0.0 3.0 0.00 0.00 0.00 82 1016.5
20260507061604 54 84 0.0 3.0 0.00 0.00 0.00 82 1016.5
20260507061404 54 84 0.0 3.0 0.00 0.00 0.00 82 1016.5
20260507061225 54 86 0.0 3.0 0.00 0.00 0.00 82 1016.6
20260507061004 54 90 0.0 3.0 0.00 0.00 0.00 81 1016.6
20260507060804 54 91 0.0 2.0 0.00 0.00 0.00 81 1016.6
20260507060604 54 0 0.0 0.0 0.00 0.00 0.00 81 1016.7
20260507060404 54 0 0.0 0.0 0.00 0.00 0.00 81 1016.7
20260507060204 54 0 0.0 0.0 0.00 0.00 0.00 81 1016.8
20260507060004 54 0 0.0 0.0 0.00 0.00 0.00 81 1016.7
20260507055825 54 0 0.0 0.0 0.00 0.00 0.00 82 1016.8
20260507055625 54 0 0.0 0.0 0.00 0.00 0.00 82 1016.8
20260507055404 54 0 0.0 0.0 0.00 0.00 0.00 82 1016.8
20260507055204 54 0 0.0 0.0 0.00 0.00 0.00 81 1016.7
20260507055004 54 0 0.0 0.0 0.00 0.00 0.00 81 1016.6
20260507054804 54 0 0.0 0.0 0.00 0.00 0.00 81 1016.6
20260507054604 54 0 0.0 0.0 0.00 0.00 0.00 81 1016.6
20260507054404 54 0 0.0 0.0 0.00 0.00 0.00 80 1016.6
20260507054204 54 94 0.0 1.0 0.00 0.00 0.00 81 1016.6
20260507054004 54 97 0.0 1.0 0.00 0.00 0.00 81 1016.6
20260507053825 54 97 0.0 1.0 0.00 0.00 0.00 80 1016.6
20260507053604 54 97 0.0 1.0 0.00 0.00 0.00 80 1016.6
20260507053404 54 97 0.0 1.0 0.00 0.00 0.00 80 1016.7
20260507053225 55 97 0.0 1.0 0.00 0.00 0.00 80 1016.6
20260507053004 55 0 0.0 0.0 0.00 0.00 0.00 80 1016.6
20260507052804 55 0 0.0 0.0 0.00 0.00 0.00 80 1016.6
20260507052604 55 0 0.0 0.0 0.00 0.00 0.00 79 1016.7
20260507052404 55 0 0.0 0.0 0.00 0.00 0.00 79 1016.7
20260507052204 55 0 0.0 0.0 0.00 0.00 0.00 79 1016.7
20260507052004 55 0 0.0 0.0 0.00 0.00 0.00 79 1016.7
20260507051804 55 0 0.0 0.0 0.00 0.00 0.00 78 1016.7
20260507051604 55 0 0.0 0.0 0.00 0.00 0.00 78 1016.7
20260507051425 56 0 0.0 0.0 0.00 0.00 0.00 78 1016.8
20260507051204 56 0 0.0 0.0 0.00 0.00 0.00 78 1016.8
20260507051004 56 0 0.0 0.0 0.00 0.00 0.00 78 1016.7
20260507050804 56 0 0.0 0.0 0.00 0.00 0.00 78 1016.8
20260507050604 56 0 0.0 0.0 0.00 0.00 0.00 78 1016.7
20260507050404 56 0 0.0 0.0 0.00 0.00 0.00 78 1016.7
20260507050204 56 0 0.0 0.0 0.00 0.00 0.00 77 1016.7
20260507050005 56 0 0.0 0.0 0.00 0.00 0.00 77 1016.7
20260507045804 56 0 0.0 0.0 0.00 0.00 0.00 77 1016.6
20260507045604 56 0 0.0 0.0 0.00 0.00 0.00 77 1016.6
20260507045404 56 0 0.0 0.0 0.00 0.00 0.00 77 1016.6
20260507045204 56 0 0.0 0.0 0.00 0.00 0.00 76 1016.6
20260507045004 56 0 0.0 0.0 0.00 0.00 0.00 76 1016.6
20260507044804 56 0 0.0 0.0 0.00 0.00 0.00 77 1016.6
20260507044604 56 0 0.0 0.0 0.00 0.00 0.00 77 1016.6
20260507044404 56 0 0.0 0.0 0.00 0.00 0.00 77 1016.6
20260507044204 56 0 0.0 0.0 0.00 0.00 0.00 76 1016.6
20260507044004 56 0 0.0 0.0 0.00 0.00 0.00 76 1016.6
20260507043804 56 0 0.0 0.0 0.00 0.00 0.00 76 1016.6
20260507043625 57 0 0.0 0.0 0.00 0.00 0.00 76 1016.7
20260507043404 57 0 0.0 0.0 0.00 0.00 0.00 76 1016.7
20260507043204 57 0 0.0 0.0 0.00 0.00 0.00 76 1016.8
20260507043004 57 0 0.0 0.0 0.00 0.00 0.00 76 1016.7
20260507042804 57 0 0.0 0.0 0.00 0.00 0.00 76 1016.6
20260507042604 57 0 0.0 0.0 0.00 0.00 0.00 76 1016.6
20260507042425 57 92 0.0 1.0 0.00 0.00 0.00 76 1016.6
20260507042204 57 88 0.0 2.0 0.00 0.00 0.00 76 1016.7
20260507042004 57 90 0.0 2.0 0.00 0.00 0.00 76 1016.7
20260507041825 57 90 0.0 2.0 0.00 0.00 0.00 75 1016.6
20260507041604 57 90 0.0 2.0 0.00 0.00 0.00 76 1016.6
20260507041404 57 89 0.0 2.0 0.00 0.00 0.00 76 1016.5
20260507041204 57 95 0.0 1.0 0.00 0.00 0.00 75 1016.5
20260507041004 57 0 0.0 0.0 0.00 0.00 0.00 75 1016.5
20260507040804 57 0 0.0 0.0 0.00 0.00 0.00 75 1016.5
20260507040604 57 0 0.0 0.0 0.00 0.00 0.00 75 1016.4
20260507040425 58 0 0.0 0.0 0.00 0.00 0.00 74 1016.5
20260507040225 58 0 0.0 0.0 0.00 0.00 0.00 74 1016.4
20260507040004 58 0 0.0 0.0 0.00 0.00 0.00 74 1016.4
20260507035825 58 0 0.0 0.0 0.00 0.00 0.00 74 1016.4
20260507035604 58 0 0.0 0.0 0.00 0.00 0.00 74 1016.4
20260507035404 58 0 0.0 0.0 0.00 0.00 0.00 74 1016.4
20260507035225 58 0 0.0 0.0 0.00 0.00 0.00 74 1016.4
20260507035004 58 0 0.0 0.0 0.00 0.00 0.00 73 1016.4
20260507034804 58 0 0.0 0.0 0.00 0.00 0.00 73 1016.3
20260507034604 58 0 0.0 0.0 0.00 0.00 0.00 73 1016.3
20260507034404 58 0 0.0 0.0 0.00 0.00 0.00 73 1016.3
20260507034204 59 0 0.0 0.0 0.00 0.00 0.00 73 1016.3
20260507034004 59 0 0.0 0.0 0.00 0.00 0.00 72 1016.3
20260507033804 59 0 0.0 0.0 0.00 0.00 0.00 72 1016.3
20260507033604 59 0 0.0 0.0 0.00 0.00 0.00 71 1016.3
20260507033404 59 0 0.0 0.0 0.00 0.00 0.00 71 1016.3
20260507033204 59 0 0.0 0.0 0.00 0.00 0.00 71 1016.3
20260507033004 59 0 0.0 0.0 0.00 0.00 0.00 71 1016.2
20260507032825 60 0 0.0 0.0 0.00 0.00 0.00 70 1016.2
20260507032604 60 0 0.0 0.0 0.00 0.00 0.00 70 1016.1
20260507032404 60 0 0.0 0.0 0.00 0.00 0.00 70 1016.1
20260507032225 60 0 0.0 0.0 0.00 0.00 0.00 70 1016.1
20260507032004 60 0 0.0 0.0 0.00 0.00 0.00 69 1016.1
20260507031804 60 0 0.0 0.0 0.00 0.00 0.00 69 1016.1
20260507031604 60 0 0.0 0.0 0.00 0.00 0.00 68 1016.1
20260507031404 61 0 0.0 0.0 0.00 0.00 0.00 68 1016.1
20260507031204 61 0 0.0 0.0 0.00 0.00 0.00 68 1016.0
20260507031004 61 0 0.0 0.0 0.00 0.00 0.00 67 1016.1
20260507030804 61 0 0.0 0.0 0.00 0.00 0.00 67 1016.0
20260507030604 61 0 0.0 0.0 0.00 0.00 0.00 66 1016.0
20260507030404 62 0 0.0 0.0 0.00 0.00 0.00 66 1016.0
20260507030204 62 0 0.0 0.0 0.00 0.00 0.00 66 1015.9
20260507030004 62 0 0.0 0.0 0.00 0.00 0.00 65 1016.0
20260507025804 62 0 0.0 0.0 0.00 0.00 0.00 64 1015.9
20260507025604 62 0 0.0 0.0 0.00 0.00 0.00 64 1015.9
20260507025404 63 293 0.0 2.0 0.00 0.00 0.00 63 1015.9
20260507025204 63 299 0.0 2.0 0.00 0.00 0.00 63 1015.9
20260507025004 63 302 0.0 2.0 0.00 0.00 0.00 62 1015.9
20260507024804 63 312 0.0 2.0 0.00 0.00 0.00 62 1015.9
20260507024604 64 312 0.0 2.0 0.00 0.00 0.00 61 1015.8
20260507024404 64 323 0.0 2.0 0.00 0.00 0.00 61 1015.8
20260507024204 64 313 0.0 3.0 0.00 0.00 0.00 60 1015.8
20260507024004 64 315 0.0 3.0 0.00 0.00 0.00 59 1015.8
20260507023804 64 303 0.0 3.0 0.00 0.00 0.00 58 1015.7
20260507023604 65 303 0.0 3.0 0.00 0.00 0.00 57 1015.7
20260507023404 65 303 0.0 3.0 0.00 0.00 0.00 56 1015.7
20260507023204 65 311 0.0 4.0 0.00 0.00 0.00 56 1015.6
20260507023004 65 306 0.0 4.0 0.00 0.00 0.00 55 1015.7
20260507022804 65 314 0.0 4.0 0.00 0.00 0.00 55 1015.6
20260507022604 66 303 1.0 4.0 0.00 0.00 0.00 55 1015.6
20260507022404 66 299 1.0 4.0 0.00 0.00 0.00 54 1015.6
20260507022204 66 301 1.0 4.0 0.00 0.00 0.00 54 1015.6
20260507022004 66 305 1.0 5.0 0.00 0.00 0.00 54 1015.6
20260507021804 66 306 1.0 5.0 0.00 0.00 0.00 53 1015.6
20260507021604 66 310 1.0 5.0 0.00 0.00 0.00 54 1015.5
20260507021404 66 314 1.0 5.0 0.00 0.00 0.00 53 1015.5
20260507021204 67 316 2.0 5.0 0.00 0.00 0.00 53 1015.6
20260507021004 67 320 1.0 5.0 0.00 0.00 0.00 52 1015.6
20260507020804 67 317 1.0 4.0 0.00 0.00 0.00 52 1015.6
20260507020604 67 319 1.0 4.0 0.00 0.00 0.00 52 1015.6
20260507020404 67 315 1.0 4.0 0.00 0.00 0.00 51 1015.5
20260507020225 68 312 1.0 5.0 0.00 0.00 0.00 52 1015.5
20260507020025 68 307 1.0 6.0 0.00 0.00 0.00 52 1015.4
20260507015804 68 307 1.0 6.0 0.00 0.00 0.00 51 1015.5
20260507015604 68 305 2.0 6.0 0.00 0.00 0.00 51 1015.5
20260507015404 68 302 2.0 6.0 0.00 0.00 0.00 51 1015.4
20260507015204 68 304 2.0 5.0 0.00 0.00 0.00 51 1015.5
20260507015004 68 305 1.0 5.0 0.00 0.00 0.00 51 1015.5
20260507014804 68 306 1.0 5.0 0.00 0.00 0.00 51 1015.5
20260507014604 68 307 1.0 5.0 0.00 0.00 0.00 50 1015.5
20260507014404 69 305 1.0 5.0 0.00 0.00 0.00 50 1015.5
20260507014204 69 302 1.0 5.0 0.00 0.00 0.00 49 1015.4
20260507014004 69 309 1.0 5.0 0.00 0.00 0.00 49 1015.5
20260507013825 69 309 1.0 5.0 0.00 0.00 0.00 49 1015.4
20260507013604 69 311 2.0 6.0 0.00 0.00 0.00 49 1015.5
20260507013404 69 313 2.0 6.0 0.00 0.00 0.00 49 1015.4
20260507013204 69 309 2.0 6.0 0.00 0.00 0.00 48 1015.4
20260507013025 69 300 2.0 6.0 0.00 0.00 0.00 48 1015.4
20260507012804 69 293 3.0 6.0 0.00 0.00 0.00 48 1015.5
20260507012604 69 290 2.0 6.0 0.00 0.00 0.00 49 1015.4
20260507012404 69 290 2.0 6.0 0.00 0.00 0.00 48 1015.4
20260507012204 69 291 2.0 6.0 0.00 0.00 0.00 47 1015.4
20260507012004 70 293 1.0 6.0 0.00 0.00 0.00 47 1015.4
20260507011804 70 310 1.0 5.0 0.00 0.00 0.00 47 1015.4
20260507011625 70 322 1.0 5.0 0.00 0.00 0.00 47 1015.4
20260507011404 70 320 1.0 5.0 0.00 0.00 0.00 46 1015.4
20260507011204 70 313 1.0 5.0 0.00 0.00 0.00 46 1015.4
20260507011025 70 307 2.0 5.0 0.00 0.00 0.00 45 1015.4
20260507010825 70 305 2.0 5.0 0.00 0.00 0.00 45 1015.4
20260507010625 70 297 2.0 6.0 0.00 0.00 0.00 45 1015.4
20260507010404 70 294 2.0 6.0 0.00 0.00 0.00 46 1015.4
20260507010225 70 301 2.0 7.0 0.00 0.00 0.00 45 1015.4
20260507010025 70 303 2.0 7.0 0.00 0.00 0.00 45 1015.4
20260507005804 70 298 2.0 7.0 0.00 0.00 0.00 45 1015.4
20260507005604 70 300 2.0 7.0 0.00 0.00 0.00 45 1015.4
20260507005425 70 305 2.0 7.0 0.00 0.00 0.00 45 1015.4
20260507005204 70 299 1.0 7.0 0.00 0.00 0.00 45 1015.4
20260507005004 70 302 1.0 7.0 0.00 0.00 0.00 43 1015.3
20260507004805 71 300 1.0 5.0 0.00 0.00 0.00 43 1015.4
20260507004604 70 291 1.0 5.0 0.00 0.00 0.00 44 1015.4
20260507004404 70 287 1.0 5.0 0.00 0.00 0.00 45 1015.4
20260507004204 70 286 2.0 5.0 0.00 0.00 0.00 44 1015.3
20260507004004 70 289 2.0 5.0 0.00 0.00 0.00 44 1015.3
20260507003804 70 296 2.0 5.0 0.00 0.00 0.00 43 1015.3
20260507003604 70 295 2.0 7.0 0.00 0.00 0.00 45 1015.3
20260507003404 70 291 3.0 8.0 0.00 0.00 0.00 43 1015.3
20260507003225 70 290 3.0 8.0 0.00 0.00 0.00 44 1015.3
20260507003025 70 287 3.0 8.0 0.00 0.00 0.00 45 1015.3
20260507002825 70 285 3.0 8.0 0.00 0.00 0.00 44 1015.3
20260507002604 70 287 3.0 8.0 0.00 0.00 0.00 44 1015.3
20260507002404 70 291 2.0 8.0 0.00 0.00 0.00 43 1015.3
20260507002204 70 297 2.0 8.0 0.00 0.00 0.00 43 1015.2
20260507002004 70 297 2.0 8.0 0.00 0.00 0.00 43 1015.2
20260507001804 70 298 3.0 8.0 0.00 0.00 0.00 43 1015.2
20260507001604 70 295 3.0 8.0 0.00 0.00 0.00 43 1015.2
20260507001404 70 294 3.0 8.0 0.00 0.00 0.00 43 1015.3
20260507001204 70 292 3.0 8.0 0.00 0.00 0.00 43 1015.2
20260507001004 70 295 3.0 7.0 0.00 0.00 0.00 42 1015.3
20260507000804 70 297 2.0 9.0 0.00 0.00 0.00 43 1015.2
20260507000604 70 302 2.0 9.0 0.00 0.00 0.00 43 1015.2
20260507000427 70 303 2.0 9.0 0.00 0.00 0.00 42 1015.2
20260507000205 70 301 2.0 9.0 0.00 0.00 0.00 44 1015.1
20260507000004 70 298 3.0 9.0 0.00 0.00 0.00 43 1015.1
20260506235804 70 293 3.0 7.0 0.00 0.00 0.00 44 1015.1
20260506235604 70 294 3.0 8.0 0.00 0.00 0.00 44 1015.2
20260506235425 70 295 3.0 8.0 0.00 0.00 0.00 43 1015.1
20260506235204 70 298 3.0 8.0 0.00 0.00 0.00 43 1015.2
20260506235004 70 302 3.0 8.0 0.00 0.00 0.00 44 1015.2
20260506234804 70 301 2.0 8.0 0.00 0.00 0.00 44 1015.2
20260506234604 70 302 2.0 7.0 0.00 0.00 0.00 43 1015.1
20260506234404 70 300 2.0 7.0 0.00 0.00 0.00 43 1015.2
20260506234225 70 296 2.0 6.0 0.00 0.00 0.00 44 1015.1
20260506234025 70 295 3.0 9.0 0.00 0.00 0.00 44 1015.1
20260506233825 70 296 3.0 9.0 0.00 0.00 0.00 44 1015.2
20260506233604 70 292 4.0 9.0 0.00 0.00 0.00 44 1015.2
20260506233404 70 293 4.0 9.0 0.00 0.00 0.00 44 1015.2
20260506233204 70 292 4.0 9.0 0.00 0.00 0.00 44 1015.2
20260506233004 70 295 4.0 9.0 0.00 0.00 0.00 43 1015.2
20260506232825 70 298 3.0 9.0 0.00 0.00 0.00 44 1015.2
20260506232604 70 300 3.0 9.0 0.00 0.00 0.00 43 1015.2
20260506232404 70 301 3.0 9.0 0.00 0.00 0.00 43 1015.3
20260506232204 70 305 3.0 8.0 0.00 0.00 0.00 42 1015.3
20260506232004 71 299 3.0 8.0 0.00 0.00 0.00 43 1015.2
20260506231804 71 298 3.0 8.0 0.00 0.00 0.00 44 1015.2
20260506231604 70 298 3.0 8.0 0.00 0.00 0.00 44 1015.3
20260506231404 70 296 3.0 8.0 0.00 0.00 0.00 44 1015.2
20260506231204 70 291 2.0 7.0 0.00 0.00 0.00 44 1015.3
20260506231004 70 276 2.0 7.0 0.00 0.00 0.00 43 1015.3
20260506230804 70 274 2.0 7.0 0.00 0.00 0.00 43 1015.4
20260506230604 70 259 2.0 7.0 0.00 0.00 0.00 44 1015.4
20260506230425 70 257 2.0 7.0 0.00 0.00 0.00 44 1015.3
20260506230204 70 272 2.0 7.0 0.00 0.00 0.00 43 1015.4
20260506230004 70 275 3.0 9.0 0.00 0.00 0.00 44 1015.4
20260506225804 70 281 3.0 9.0 0.00 0.00 0.00 43 1015.4
20260506225604 70 289 3.0 9.0 0.00 0.00 0.00 44 1015.5
20260506225404 70 287 3.0 9.0 0.00 0.00 0.00 44 1015.5
20260506225204 70 285 3.0 9.0 0.00 0.00 0.00 43 1015.5
20260506225004 70 294 3.0 7.0 0.00 0.00 0.00 44 1015.5
20260506224804 70 290 3.0 7.0 0.00 0.00 0.00 44 1015.5
20260506224604 70 293 3.0 7.0 0.00 0.00 0.00 43 1015.6
20260506224404 70 293 2.0 7.0 0.00 0.00 0.00 43 1015.5
20260506224204 71 293 2.0 7.0 0.00 0.00 0.00 43 1015.6
20260506224025 71 294 2.0 5.0 0.00 0.00 0.00 44 1015.5
20260506223804 70 293 2.0 5.0 0.00 0.00 0.00 45 1015.5
20260506223605 70 291 2.0 6.0 0.00 0.00 0.00 43 1015.5
20260506223404 70 290 2.0 6.0 0.00 0.00 0.00 44 1015.6
20260506223204 70 285 2.0 6.0 0.00 0.00 0.00 44 1015.6
20260506223025 70 285 2.0 6.0 0.00 0.00 0.00 43 1015.6
20260506222804 70 291 2.0 6.0 0.00 0.00 0.00 44 1015.7
20260506222604 70 300 2.0 6.0 0.00 0.00 0.00 44 1015.8
20260506222404 70 310 2.0 6.0 0.00 0.00 0.00 44 1015.8
20260506222204 69 311 2.0 6.0 0.00 0.00 0.00 46 1015.8
20260506222004 69 314 2.0 5.0 0.00 0.00 0.00 45 1015.8
20260506221804 69 312 2.0 5.0 0.00 0.00 0.00 44 1015.9
20260506221604 69 285 2.0 5.0 0.00 0.00 0.00 45 1015.9
20260506221404 69 274 2.0 5.0 0.00 0.00 0.00 45 1015.9
20260506221204 69 272 2.0 6.0 0.00 0.00 0.00 44 1015.9
20260506221004 69 266 2.0 6.0 0.00 0.00 0.00 44 1016.0
20260506220825 69 275 2.0 6.0 0.00 0.00 0.00 45 1016.0
20260506220604 69 286 2.0 7.0 0.00 0.00 0.00 46 1016.0
20260506220425 69 285 2.0 7.0 0.00 0.00 0.00 46 1016.0
20260506220204 69 282 2.0 7.0 0.00 0.00 0.00 46 1016.0
20260506220004 69 284 2.0 7.0 0.00 0.00 0.00 45 1016.0
20260506215804 69 286 2.0 8.0 0.00 0.00 0.00 47 1016.1
20260506215604 69 289 2.0 8.0 0.00 0.00 0.00 48 1016.0
20260506215404 68 291 2.0 8.0 0.00 0.00 0.00 46 1016.1
20260506215204 68 286 3.0 8.0 0.00 0.00 0.00 47 1016.1
20260506215004 69 280 2.0 8.0 0.00 0.00 0.00 47 1016.1
20260506214804 69 277 2.0 7.0 0.00 0.00 0.00 46 1016.1
20260506214604 69 270 2.0 7.0 0.00 0.00 0.00 46 1016.2
20260506214404 69 259 3.0 8.0 0.00 0.00 0.00 46 1016.2
20260506214204 69 261 2.0 8.0 0.00 0.00 0.00 47 1016.2
20260506214004 69 261 2.0 8.0 0.00 0.00 0.00 47 1016.2
20260506213804 69 240 2.0 8.0 0.00 0.00 0.00 46 1016.2
20260506213625 69 231 2.0 8.0 0.00 0.00 0.00 46 1016.2
20260506213404 68 242 2.0 7.0 0.00 0.00 0.00 49 1016.3
20260506213204 68 256 2.0 7.0 0.00 0.00 0.00 46 1016.3
20260506213004 68 264 3.0 7.0 0.00 0.00 0.00 46 1016.4
20260506212825 68 271 3.0 7.0 0.00 0.00 0.00 47 1016.4
20260506212604 68 283 2.0 7.0 0.00 0.00 0.00 47 1016.5
20260506212404 68 291 2.0 7.0 0.00 0.00 0.00 48 1016.5
20260506212204 68 289 2.0 7.0 0.00 0.00 0.00 47 1016.5
20260506212025 68 293 2.0 7.0 0.00 0.00 0.00 47 1016.5
20260506211804 68 294 3.0 7.0 0.00 0.00 0.00 49 1016.5
20260506211604 68 295 3.0 7.0 0.00 0.00 0.00 48 1016.5
20260506211425 68 295 3.0 7.0 0.00 0.00 0.00 48 1016.5
20260506211204 68 293 3.0 6.0 0.00 0.00 0.00 48 1016.6
20260506211004 68 293 3.0 8.0 0.00 0.00 0.00 49 1016.5
20260506210804 68 297 3.0 8.0 0.00 0.00 0.00 49 1016.5
20260506210604 68 294 3.0 8.0 0.00 0.00 0.00 47 1016.5
20260506210404 68 291 3.0 8.0 0.00 0.00 0.00 49 1016.6
20260506210204 68 289 3.0 8.0 0.00 0.00 0.00 48 1016.6
20260506210004 68 288 2.0 7.0 0.00 0.00 0.00 48 1016.6
20260506205804 68 284 2.0 7.0 0.00 0.00 0.00 50 1016.7
20260506205604 68 284 2.0 7.0 0.00 0.00 0.00 47 1016.7
20260506205425 68 280 2.0 7.0 0.00 0.00 0.00 47 1016.6
20260506205204 68 277 2.0 7.0 0.00 0.00 0.00 46 1016.7
20260506205025 68 261 2.0 6.0 0.00 0.00 0.00 46 1016.7
20260506204804 68 206 2.0 6.0 0.00 0.00 0.00 48 1016.7
20260506204604 68 182 2.0 6.0 0.00 0.00 0.00 48 1016.7
20260506204404 68 209 2.0 6.0 0.00 0.00 0.00 49 1016.7
20260506204204 68 241 3.0 7.0 0.00 0.00 0.00 48 1016.6
20260506204025 68 267 3.0 7.0 0.00 0.00 0.00 46 1016.7
20260506203804 67 285 3.0 7.0 0.00 0.00 0.00 48 1016.7
20260506203604 68 289 2.0 7.0 0.00 0.00 0.00 48 1016.7
20260506203404 68 285 2.0 7.0 0.00 0.00 0.00 47 1016.7
20260506203204 68 282 1.0 6.0 0.00 0.00 0.00 48 1016.7
20260506203004 68 257 1.0 5.0 0.00 0.00 0.00 47 1016.7
20260506202804 67 239 1.0 4.0 0.00 0.00 0.00 48 1016.8
20260506202604 67 252 1.0 4.0 0.00 0.00 0.00 48 1016.9
20260506202425 67 256 1.0 4.0 0.00 0.00 0.00 47 1016.9
20260506202204 67 246 1.0 4.0 0.00 0.00 0.00 48 1016.9
20260506202004 67 257 1.0 4.0 0.00 0.00 0.00 47 1016.9
20260506201804 67 282 1.0 5.0 0.00 0.00 0.00 49 1017.0
20260506201604 66 292 1.0 5.0 0.00 0.00 0.00 50 1017.0
20260506201404 66 280 2.0 5.0 0.00 0.00 0.00 49 1017.0
20260506201204 66 274 2.0 5.0 0.00 0.00 0.00 49 1017.0
20260506201004 66 265 2.0 5.0 0.00 0.00 0.00 49 1017.0
20260506200804 66 252 2.0 5.0 0.00 0.00 0.00 51 1017.1
20260506200604 66 269 2.0 6.0 0.00 0.00 0.00 50 1017.1
20260506200404 66 286 2.0 7.0 0.00 0.00 0.00 50 1017.1
20260506200204 65 303 2.0 7.0 0.00 0.00 0.00 50 1017.3
20260506200004 65 309 2.0 7.0 0.00 0.00 0.00 51 1017.3
20260506195804 65 306 3.0 7.0 0.00 0.00 0.00 51 1017.2
20260506195604 65 300 3.0 7.0 0.00 0.00 0.00 52 1017.3
20260506195404 65 291 2.0 7.0 0.00 0.00 0.00 51 1017.3
20260506195204 65 270 2.0 7.0 0.00 0.00 0.00 50 1017.3
20260506195004 65 247 2.0 7.0 0.00 0.00 0.00 50 1017.3
20260506194804 65 249 2.0 6.0 0.00 0.00 0.00 52 1017.3